Location: Unspecified
(0.0000°N, 0.0000°E)
Time: 05:08:21
(UTC+00:00)

Tiangong 2 - Pass Details

Date: 13 June 2019
Orbit: 376 x 388 km, 42.8° (Epoch: 26 June)

Event Time Altitude Azimuth Distance (km) Brightness Sun altitude
Exits shadow 04:52:26 - 175° (S) 1,597 4.0 -15.5°
Reaches altitude 10° 04:53:20 10° 162° (SSE) 1,400 3.8 -15.3°
Maximum altitude 04:54:43 12° 136° (SE) 1,273 3.9 -15.0°
Drops below altitude 10° 04:56:06 10° 110° (ESE) 1,400 4.6 -14.6°
Sets 04:59:08 0° 78° (ENE) 2,253 6.7 -14.0°
